COSMOS 2476 (744)

Last updated on Sun Sep 14 2025 00:03:20 GMT+0000 (Coordinated Universal Time)

1 37867U 11064A 25256.32272113 .00000027 00000+0 00000+0 0 9991 2 37867 65.1108 82.2291 0021886 231.0391 292.2193 2.13101419107864
UTC large
Height (km)
Speed (km/s)
/
Latitude / Longitude
Inclination (degrees)
Orbital Period (minutes)
Azimuth
Elevation
Range (km)
Doppler Factor

Next 0 passes for location: London (51.5072 / 0.1276)

Sorry there are no passes over London.